This demonstration page uses our WeatherBlox Daily Observations layout. Learn more.

Left ArrowRight Arrow

36.17497, -115.13722

Hourly Observations for February 1, 2019

Temp ( °F °C ) Dew Point ( °F °C ) Humidity (%) Winds ( mph kmh ) Pressure ( in mb ) Visibility ( mi km ) Precip ( " mm )
12:53 am 00:53 Clear 46 7.8 28 -2.2 50 50 N 3 6 30.03 1017 10 16 N/A
1:53 am 01:53 Clear 45 7.2 28 -2.2 52 52 NW 5 7 30.03 1017 10 16 N/A
2:53 am 02:53 Clear 44 6.7 28 -2.2 53 53 Calm 30.02 1017 10 16 N/A
3:53 am 03:53 Clear 44 6.7 28 -2.2 53 53 NW 6 9 30.02 1017 10 16 N/A
4:53 am 04:53 Clear 41 5 28 -2.2 60 60 N 5 7 30.04 1017 10 16 N/A
5:53 am 05:53 Clear 42 5.6 28 -2.2 58 58 NW 3 6 30.04 1017 10 16 N/A
6:53 am 06:53 Sunny 42 5.6 28 -2.2 58 58 NNW 5 7 30.06 1018 10 16 N/A
7:53 am 07:53 Sunny 46 7.8 27 -2.8 47 47 NNW 3 6 30.08 1019 10 16 N/A
8:53 am 08:53 Sunny 52 11.1 28 -2.2 40 40 NNW 5 7 30.09 1019 10 16 N/A
9:53 am 09:53 Sunny 57 13.9 28 -2.2 33 33 VRB 3 6 30.08 1019 10 16 N/A
10:53 am 10:53 Sunny 58 14.4 26 -3.3 29 29 SSE 7 11 30.09 1019 10 16 N/A
11:53 am 11:53 Sunny 60 15.6 26 -3.3 27 27 ESE 3 6 30.05 1018 10 16 N/A
12:53 pm 12:53 Sunny 63 17.2 27 -2.8 26 26 ESE 8 13 30.01 1016 10 16 N/A
1:53 pm 13:53 Sunny 64 17.8 28 -2.2 26 26 SE 7 11 29.98 1015 10 16 N/A
2:53 pm 14:53 Sunny 64 17.8 30 -1.1 28 28 ESE 8 13 29.97 1015 10 16 N/A
3:53 pm 15:53 Sunny 64 17.8 32 0 30 30 ESE 8 13 29.96 1015 10 16 N/A
4:53 pm 16:53 Sunny 62 16.7 32 0 32 32 E 9 15 29.96 1015 10 16 N/A
5:53 pm 17:53 Clear 59 15 33 0.6 38 38 E 7 11 29.97 1015 10 16 N/A
6:53 pm 18:53 Clear 58 14.4 34 1.1 41 41 Calm 29.98 1015 10 16 N/A
7:53 pm 19:53 Clear 58 14.4 35 1.7 42 42 Calm 29.98 1015 10 16 N/A
8:53 pm 20:53 Clear 58 14.4 37 2.8 46 46 SSE 3 6 29.97 1015 10 16 N/A
9:53 pm 21:53 Clear 54 12.2 36 2.2 51 51 Calm 29.98 1015 10 16 N/A
10:53 pm 22:53 Clear 54 12.2 38 3.3 55 55 NE 5 7 29.97 1015 10 16 N/A
11:53 pm 23:53 Mostly Cloudy 54 12.2 38 3.3 55 55 E 3 6 29.97 1015 10 16 N/A

Powered by AerisWeather